This is the latest recevied weather packets stored in our database for station/object K7AEL. If no packets are shown the sender has not sent any weather packets the latest 10 day(s).
| Time | Temp. | Humidity | Pressure | Rain* | Wind** | Luminosity | Snow |
|---|---|---|---|---|---|---|---|
| 1777510056 | 27.78° C | 13% | 1013.4 hPa | 0 mm | - | 63 W/m² | - |
| 1777509752 | 27.78° C | 13% | 1013.3 hPa | 0 mm | - | 58 W/m² | - |
| 1777509448 | 28.33° C | 12% | 1013.4 hPa | 0 mm | - | 64 W/m² | - |
| 1777509146 | 28.33° C | 12% | 1013.2 hPa | 0 mm | - | 59 W/m² | - |
| 1777508843 | 28.33° C | 12% | 1013.3 hPa | 0 mm | - | 77 W/m² | - |
| 1777508540 | 28.33° C | 12% | 1013 hPa | 0 mm | - | 103 W/m² | - |
| 1777508237 | 28.33° C | 12% | 1013 hPa | 0 mm | - | 64 W/m² | - |
| 1777507934 | 28.33° C | 12% | 1013 hPa | 0 mm | - | 86 W/m² | - |
| 1777507631 | 28.33° C | 12% | 1012.8 hPa | 0 mm | - | 94 W/m² | - |
| 1777507328 | 28.33° C | 12% | 1012.8 hPa | 0 mm | - | 128 W/m² | - |
| 1777507025 | 28.33° C | 12% | 1013.2 hPa | 0 mm | - | 102 W/m² | - |
| 1777506723 | 28.33° C | 12% | 1013.4 hPa | 0 mm | - | 98 W/m² | - |
| 1777506418 | 28.33° C | 12% | 1013.5 hPa | 0 mm | - | 92 W/m² | - |
| 1777506115 | 28.33° C | 12% | 1013.6 hPa | 0 mm | - | 112 W/m² | - |
| 1777505810 | 28.33° C | 12% | 1013.6 hPa | 0 mm | - | 117 W/m² | - |
| 1777505507 | 28.89° C | 12% | 1013.6 hPa | 0 mm | - | 126 W/m² | - |
| 1777505203 | 29.44° C | 12% | 1013.5 hPa | 0 mm | - | 123 W/m² | - |
| 1777504900 | 29.44° C | 12% | 1013.5 hPa | 0 mm | - | 225 W/m² | - |
| 1777504592 | 28.89° C | 11% | 1013.4 hPa | 0 mm | - | 353 W/m² | - |
| 1777504287 | 28.89° C | 12% | 1013.5 hPa | 0 mm | - | 246 W/m² | - |
| 1777503983 | 28.89° C | 12% | 1013.2 hPa | 0 mm | - | 225 W/m² | - |
| 1777503680 | 28.89° C | 12% | 1013.4 hPa | 0 mm | - | 150 W/m² | - |
| 1777503376 | 28.33° C | 13% | 1013.4 hPa | 0 mm | - | 168 W/m² | - |
| 1777503073 | 28.33° C | 12% | 1013.5 hPa | 0 mm | - | 153 W/m² | - |
| 1777502770 | 28.89° C | 12% | 1013.7 hPa | 0 mm | - | 166 W/m² | - |
* Rain latest hour (hover to see other rain measurements)
** Current wind speed in m/s (hover to see current wind gust speed)